Theta_e
293 288 287 291 294 294 293 292 291 294 297 298 297 297 300 300 300 300 302 301 302 302 303 305 305 304 303 303 301 299 295 296 300 301 301 301 300 302 303 303 304 303 301 301
289 285 292 295 295 294 293 291 291 292 294 294 294 295 299 300 300 302 302 302 303 303 303 303 303 303 302 303 302 300 297 295 300 301 301 301 301 301 303 304 304 304 303 301
286 289 293 293 292 292 292 291 291 290 292 291 289 289 293 297 300 302 304 304 304 304 304 302 302 302 302 302 302 301 299 297 298 300 301 299 299 299 300 301 301 302 303 302
288 292 291 290 290 292 288 295 294 291 289 284 289 280 288 293 296 299 300 301 303 303 305 305 303 302 302 303 304 303 301 298 297 299 299 298 294 295 294 297 299 300 302 302
286 287 288 288 290 294 291 296 294 292 289 285 284 280 285 290 291 294 296 299 300 301 304 305 304 304 304 304 303 304 302 300 298 297 297 296 292 293 294 295 297 298 299 301
287 290 291 290 293 294 296 293 292 290 288 279 285 283 283 287 290 291 292 292 294 293 293 295 303 306 305 305 304 303 302 301 299 297 295 294 293 293 293 293 294 295 296 298
284 285 289 292 290 294 294 289 281 277 277 278 282 282 286 289 289 289 290 292 292 291 292 293 293 298 304 304 304 304 303 301 300 297 296 295 294 294 294 294 293 293 294 295
278 276 286 291 290 289 290 289 282 274 276 277 280 277 285 288 290 290 290 292 293 292 295 294 294 296 297 303 303 303 302 301 301 298 297 296 296 295 295 295 294 294 294 294
279 279 287 290 291 291 288 285 290 281 274 277 280 283 288 289 289 290 291 293 292 293 294 295 295 296 297 298 302 303 302 301 300 299 297 297 296 296 296 296 295 294 295 296
285 278 284 286 289 289 289 291 283 282 271 273 277 279 282 285 286 289 289 290 291 293 294 295 296 296 297 298 299 301 301 300 300 299 298 298 297 297 296 296 295 295 295 295
285 283 279 284 284 285 284 285 286 285 283 278 276 279 284 288 288 288 290 292 291 291 292 293 296 297 297 298 298 298 299 299 299 299 298 297 297 297 297 296 296 295 295 295
286 284 276 279 284 287 286 287 288 281 278 279 279 280 287 290 290 291 291 292 291 292 291 292 294 296 296 296 296 297 297 297 298 298 297 297 297 297 296 295 295 295 295 295
287 281 272 276 281 285 282 285 288 287 283 279 278 280 287 290 290 290 290 290 291 292 292 293 293 293 294 295 296 296 297 297 297 297 296 296 295 295 295 295 295 295 295 295
291 284 281 276 278 283 280 283 284 287 280 279 281 281 285 287 288 289 289 291 291 291 293 293 293 293 293 294 294 295 296 297 297 296 295 294 294 294 294 295 295 295 295 294
288 275 282 282 282 283 283 283 284 283 286 281 282 283 286 289 289 288 290 291 292 292 292 292 292 292 292 293 293 294 295 295 296 296 295 295 296 296 296 295 295 294 293 293
289 276 280 276 283 283 280 284 285 285 285 286 284 284 288 291 289 289 291 291 292 292 292 292 293 293 292 293 293 294 295 296 296 296 295 296 295 295 294 294 293 293 292 292
284 278 276 272 282 282 276 282 284 284 286 287 283 286 288 288 289 290 291 292 293 292 292 292 292 293 293 292 293 293 294 295 295 294 294 294 295 294 294 294 293 292 291 291
281 278 278 270 277 272 282 287 287 286 287 288 288 288 289 290 291 291 293 293 293 292 292 292 292 291 292 292 292 293 293 292 292 291 291 291 292 292 292 292 291 292 292 291
288 284 280 276 269 278 282 286 285 284 285 289 288 290 289 289 290 288 293 294 293 292 292 292 292 291 290 289 290 291 290 290 289 288 288 289 289 289 288 288 289 290 289 288
288 286 281 277 271 268 280 287 290 290 281 289 290 290 287 289 284 286 292 293 292 291 291 290 290 290 289 288 290 289 288 288 287 287 287 287 286 287 287 287 286 286 287 285
283 283 279 279 276 278 287 287 290 278 281 288 291 291 289 288 289 291 292 290 291 290 289 289 289 287 287 288 289 287 287 285 287 285 285 284 284 284 285 284 285 284 285 286
280 280 280 282 274 273 287 286 284 287 287 288 288 291 290 289 291 291 290 289 288 287 288 288 286 285 286 287 288 286 285 286 285 284 284 283 283 284 284 284 284 284 284 284
279 283 280 282 281 286 288 287 288 289 289 287 288 288 290 290 289 289 287 288 287 286 285 286 285 284 285 285 286 285 285 285 285 284 282 281 281 283 283 283 284 284 282 280
280 284 281 282 284 284 286 287 287 287 287 288 289 290 291 288 288 287 287 286 284 284 284 284 284 284 284 285 285 285 285 285 285 284 281 280 282 282 280 282 282 279 280 282
281 283 280 280 282 282 285 287 288 286 287 288 289 288 289 288 286 286 285 285 284 284 284 285 285 285 284 285 284 284 284 284 283 283 284 281 284 282 281 282 280 282 282 282
282 281 282 280 285 287 287 288 288 286 286 287 286 286 286 288 287 286 285 284 284 284 284 284 285 284 284 284 283 283 284 284 284 283 283 283 283 283 283 283 283 286 286 286
Wind_Speed
9 6 18 15 13 10 8 7 15 10 3 6 11 10 12 10 8 9 9 9 11 12 13 11 11 12 10 10 12 13 12 9 8 5 5 4 5 4 4 4 7 7 6 7
6 20 12 12 12 13 13 7 10 3 4 2 6 12 12 9 11 13 11 10 10 10 13 14 14 12 11 12 13 14 14 12 10 6 4 3 4 4 4 4 5 6 7 7
13 3 15 12 13 14 14 10 6 5 4 2 3 9 10 11 12 11 13 9 10 12 15 16 16 15 13 14 15 15 15 13 11 8 5 4 3 2 4 4 4 5 7 7
13 13 13 15 15 12 16 10 4 7 5 4 6 6 6 13 16 17 11 11 10 11 11 16 17 16 16 16 13 13 14 14 11 11 10 11 5 6 4 4 4 5 7 7
6 8 8 14 13 9 7 7 5 3 5 3 5 3 7 4 7 10 9 10 9 7 9 15 19 20 18 14 14 13 13 13 12 12 9 8 6 5 4 4 7 7 7 8
4 4 3 4 7 7 6 4 4 2 4 5 9 7 7 5 6 5 6 5 4 3 2 4 6 14 13 12 11 12 13 13 12 14 11 11 10 7 5 6 5 5 4 5
4 4 1 2 6 1 12 10 2 1 4 7 5 6 11 3 1 4 4 6 5 2 1 2 2 3 9 12 13 12 13 12 12 14 13 9 9 9 8 7 6 6 5 4
9 6 11 7 10 8 18 15 6 8 5 5 4 7 8 3 4 3 1 5 5 4 2 3 0 4 4 7 10 10 10 9 11 12 10 8 8 5 6 6 4 5 5 5
8 9 6 5 1 5 7 13 3 7 1 3 6 6 3 7 5 6 7 7 7 7 5 6 4 2 3 4 7 9 8 7 8 9 7 7 7 7 6 7 6 5 6 5
4 4 1 1 2 2 7 7 4 2 5 4 4 4 8 7 9 8 8 8 8 7 7 6 5 5 4 4 4 6 7 7 7 8 7 7 7 7 6 6 7 7 6 7
2 4 1 5 7 11 4 7 6 4 5 5 3 6 1 10 10 9 8 8 8 8 7 6 6 5 5 5 5 5 5 5 5 6 7 7 6 7 7 7 6 7 6 7
7 5 4 3 2 3 3 5 13 7 6 2 2 6 6 8 9 10 8 7 7 7 8 7 6 6 6 6 6 5 4 5 5 5 6 6 6 6 7 7 7 7 7 7
10 5 4 2 2 2 4 5 9 4 2 8 7 4 7 8 8 8 9 8 7 7 8 7 7 6 6 6 5 6 5 5 5 5 5 5 5 5 6 6 6 6 6 7
11 4 7 10 3 7 6 8 6 14 4 5 10 6 4 7 8 7 8 8 7 7 7 7 7 6 7 6 6 6 5 5 5 5 5 5 6 6 6 6 6 6 6 6
6 6 5 5 7 3 4 14 12 11 20 10 5 8 11 11 10 8 7 8 8 7 7 7 6 6 6 7 6 6 6 6 4 4 3 2 2 1 1 1 2 3 4 4
3 2 2 2 3 6 2 2 12 19 11 13 6 6 4 13 9 8 9 9 8 8 7 7 6 6 6 6 6 6 6 6 6 6 6 5 4 4 2 2 3 3 4 4
8 6 3 5 7 5 3 10 9 10 9 14 13 9 6 11 15 14 12 11 10 10 8 8 7 6 5 5 5 6 6 6 7 7 7 6 6 5 5 4 2 3 4 4
5 7 4 3 5 3 13 7 9 11 9 16 18 5 10 17 17 9 9 12 11 10 9 7 6 6 6 5 5 6 6 7 7 7 6 6 5 5 5 5 4 4 3 3
6 5 4 5 5 5 6 12 13 11 21 15 15 17 7 6 7 2 8 7 9 9 8 7 6 7 6 5 5 6 6 6 7 7 6 5 5 5 6 6 6 5 5 4
3 4 5 4 5 10 6 10 10 7 15 15 21 16 11 13 10 6 8 12 11 11 10 9 7 8 6 4 5 6 6 6 7 6 5 5 5 5 5 5 5 3 4 3
7 4 10 7 4 8 7 5 11 8 9 4 16 17 17 16 8 14 16 12 11 11 11 8 8 6 5 4 5 6 6 6 4 3 4 5 5 4 4 4 3 3 3 3
8 7 7 5 4 9 4 6 15 3 1 1 4 13 18 7 13 18 16 16 15 13 10 8 8 6 5 5 5 6 6 4 5 5 5 5 5 4 4 6 5 5 5 5
4 8 7 10 7 2 10 4 2 2 1 3 5 4 12 16 16 19 16 14 12 11 9 7 8 6 5 5 6 6 4 5 5 7 6 5 5 4 4 4 6 5 4 3
2 1 4 5 6 6 7 1 2 0 2 3 2 8 18 18 16 16 14 12 10 8 8 6 7 7 5 5 5 5 3 4 3 4 3 2 4 4 3 2 1 1 3 6
6 7 7 4 2 2 6 8 5 3 4 6 7 7 16 20 15 15 13 11 9 9 7 6 6 5 5 4 4 3 2 2 4 3 4 3 4 4 3 2 2 4 4 4
6 8 8 6 9 7 6 9 9 8 6 7 10 7 6 15 16 14 11 10 10 9 7 6 6 6 5 5 4 4 3 3 4 3 4 4 5 5 6 6 4 11 10 11
Wind_Direction
202 192 209 205 214 235 237 228 221 258 94 181 231 241 240 195 201 209 231 195 177 185 178 176 177 170 163 168 167 169 170 177 171 179 167 175 168 180 200 192 188 183 179 182
167 225 210 218 213 224 253 265 262 118 124 159 257 255 241 233 206 198 197 214 189 173 168 173 179 170 172 177 176 173 179 178 178 175 174 160 159 191 184 191 193 191 184 183
208 226 202 222 226 215 229 233 243 263 140 278 331 274 241 244 243 206 201 205 197 181 177 173 176 181 178 181 187 183 179 179 180 167 159 158 165 210 178 192 191 199 193 193
236 231 198 219 223 205 221 215 266 132 141 243 165 276 284 230 216 218 214 194 214 187 176 169 174 182 187 191 189 184 177 177 179 169 180 184 183 184 190 181 173 186 198 205
217 212 188 212 220 210 207 215 163 172 226 14 201 269 253 356 192 200 209 197 205 224 174 170 179 184 189 183 186 186 179 178 176 182 179 181 185 183 171 175 182 193 198 202
223 327 233 214 184 207 136 95 100 167 241 255 216 182 272 215 223 171 132 136 119 100 60 51 160 174 179 172 174 179 182 182 172 181 180 188 190 184 188 183 186 194 190 195
181 224 280 267 116 83 155 162 135 281 232 226 340 224 240 203 85 104 127 109 85 31 253 135 153 142 170 167 176 177 183 185 176 182 187 186 184 192 195 186 177 180 187 193
169 215 177 190 195 178 187 181 151 190 204 204 345 231 248 96 96 103 151 97 117 136 101 108 127 195 190 164 162 168 178 178 176 176 185 188 191 194 203 191 177 189 196 197
186 232 83 165 104 131 182 217 173 106 64 72 208 263 255 157 148 162 151 151 127 114 105 115 113 107 132 148 162 160 161 170 166 169 173 187 195 200 201 204 192 189 196 200
220 137 240 342 324 104 196 152 159 272 136 235 244 251 236 202 176 159 159 139 128 122 110 102 95 92 85 115 118 130 151 171 169 167 170 184 194 196 195 198 206 205 206 206
260 110 326 127 214 177 164 190 198 166 176 187 201 250 156 191 156 162 140 134 123 111 102 99 104 98 96 98 107 115 129 150 167 169 169 179 195 195 192 201 210 208 203 209
157 94 169 192 6 27 327 216 198 190 214 181 136 276 325 124 140 129 128 116 110 112 111 108 101 110 111 116 119 136 141 156 171 168 167 189 193 195 201 207 209 209 214 211
161 212 100 71 1 325 183 205 222 210 87 194 185 250 335 100 106 122 129 129 121 117 111 103 93 88 91 101 113 126 146 166 166 164 171 190 202 210 219 221 222 222 225 224
153 182 187 196 178 126 178 192 204 217 204 174 221 165 227 157 148 137 133 133 124 113 109 102 90 87 84 77 79 92 97 126 150 155 169 194 205 212 220 223 222 223 227 227
147 200 202 237 125 90 179 189 200 214 225 214 190 207 199 191 164 161 160 132 130 129 111 106 101 95 81 78 69 73 74 78 95 129 149 192 201 177 203 263 263 253 250 251
106 266 103 49 122 113 125 198 205 223 226 254 257 239 205 164 152 164 162 154 153 140 126 124 112 100 84 71 71 66 62 59 75 77 70 59 50 39 13 335 302 287 275 268
149 138 88 244 116 85 317 220 202 211 226 224 231 221 139 160 176 176 165 169 161 148 142 132 119 103 88 69 61 62 57 54 60 55 48 37 27 33 22 4 343 301 279 266
146 135 103 184 88 230 240 178 187 215 226 227 242 201 173 182 190 163 165 157 151 145 136 128 121 110 87 69 54 71 60 60 61 50 46 28 18 16 8 14 11 359 353 346
148 123 108 146 193 271 188 210 191 181 239 219 228 232 199 113 85 35 157 143 143 137 124 114 105 105 91 74 62 80 72 70 62 43 31 13 12 6 8 22 14 19 14 12
100 121 121 150 176 211 246 178 158 98 270 208 209 216 150 143 172 204 147 130 124 118 122 124 113 96 88 65 76 87 79 70 55 34 8 10 17 16 18 21 17 11 26 12
161 145 186 189 238 278 202 165 134 141 239 312 206 194 165 184 194 143 134 120 116 119 120 108 99 104 104 77 93 88 84 67 51 33 28 32 28 32 23 29 21 25 14 9
162 159 178 166 206 261 154 118 169 218 299 325 299 187 180 138 124 136 132 130 129 126 119 114 116 112 95 69 79 79 68 43 41 30 33 26 20 20 22 34 19 18 21 20
172 185 175 179 207 214 184 180 146 83 309 300 281 259 139 134 139 136 134 131 128 125 126 122 124 117 92 76 62 70 42 29 25 31 17 15 7 2 16 41 45 40 16 32
256 181 160 98 220 187 233 227 278 134 209 247 71 136 135 132 133 127 126 126 123 127 127 125 114 105 92 75 68 67 47 32 41 61 1 39 49 30 30 28 41 66 42 40
183 135 162 267 174 37 279 230 190 147 124 113 107 130 135 130 134 133 130 128 127 124 125 121 112 111 118 115 100 81 58 51 78 95 76 52 71 64 54 51 79 51 37 57
184 171 177 217 180 180 221 200 161 152 152 137 128 106 97 137 131 129 121 123 131 130 123 120 128 130 135 123 103 80 63 82 100 95 85 73 73 67 63 60 40 50 49 42